Vertical_Velocity
-3 2 1 -1 -0 3 3 2 -1 -2 0 -0 0 0 -1 0 -1 -1 0 -0 1 0 1 1 -0 -1 -2 -2 -1 -0 -1 -1 1 -0 -2 0 0 -3 -0 -3 -2 2 4
-2 2 1 1 0 2 -1 0 0 0 0 -0 1 1 -1 -0 -1 -2 -0 1 -2 -1 -0 -0 -0 -0 -1 -1 -1 -1 -1 -0 -1 0 0 -1 -2 0 0 -2 -1 0 -1
-1 -2 -0 1 -2 -1 0 0 -0 1 1 0 1 -1 1 -0 -1 -2 0 1 -0 1 -0 -0 -1 -1 -1 -1 -1 -1 -1 -0 -0 1 1 -0 -1 -1 -2 -1 0 -0 -2
-1 -1 0 -1 -2 -0 -0 1 2 2 2 1 -1 -0 -0 -0 -0 -1 0 -0 -0 0 -0 0 -0 -0 0 -1 -1 -1 -1 -1 -1 -1 -0 0 -0 0 -0 -1 -1 -1 -3
0 -0 -2 -0 -2 -1 1 0 1 1 0 0 1 0 -0 -0 -1 0 1 0 0 1 1 -0 -1 -0 -1 -1 -0 -2 -1 -1 -1 -1 -1 -1 -1 -1 -1 -1 -0 2 2
0 0 -2 -2 -0 -0 1 0 2 2 1 1 2 0 -0 -0 -1 1 1 1 -0 1 0 -1 0 -1 -1 -1 -1 -1 -0 -0 -1 0 -0 0 -0 -0 -1 -2 -3 -3 -2
0 0 -2 -2 -0 -1 1 3 3 2 0 -0 1 1 2 1 -0 1 1 2 0 -1 0 1 0 -1 -1 1 0 -0 -1 -1 -1 -1 0 0 1 -1 0 -0 -0 -0 -1
1 -2 -1 -0 4 1 -0 0 -1 -2 1 1 2 0 2 2 -0 1 0 1 1 1 -0 -0 2 -0 -1 0 1 1 1 -0 -1 -0 -1 -0 -0 -0 -0 -0 -0 -0 1
-1 3 0 -1 2 -0 2 1 1 1 0 -0 0 1 -1 2 -3 -1 -2 -1 1 2 -0 0 1 1 -2 -1 1 -0 1 0 0 0 -0 -1 -1 -2 -1 -1 -1 -1 -1
1 1 -1 -2 -0 2 0 -0 0 -2 1 -1 2 1 -1 5 -1 0 -3 -1 2 3 -0 1 -1 0 -1 -1 0 -1 2 -2 1 -1 -0 1 0 -0 -2 -2 -1 -1 -2
0 1 2 -0 0 -1 -0 -1 2 2 -0 1 0 3 0 -2 4 -1 -0 -3 1 1 3 5 0 -2 2 1 -3 0 -1 1 -1 1 0 0 -1 -0 -1 -2 -1 -0 0
1 -1 -2 -2 -1 -1 1 4 -1 -2 -1 4 0 3 1 2 -2 3 0 -2 -0 -3 3 3 1 -3 2 2 1 1 -0 -1 2 -1 1 0 -0 0 1 1 -1 -2 -3
-0 1 1 1 -0 -1 -1 1 1 -0 -1 2 -0 -0 3 -1 -1 -1 -1 -1 0 -3 3 2 -1 -2 0 2 2 1 -1 -0 -1 2 1 1 -2 -0 -0 -0 1 1 -0
-0 -0 0 -0 2 -0 -1 -2 0 1 0 -2 -2 -2 0 2 2 -1 0 0 -0 1 -0 1 3 1 2 1 0 -0 0 -1 -2 2 1 -1 0 0 0 0 1 -0 1
-0 -0 -1 -1 -2 -0 0 -0 0 -1 -1 0 0 2 1 2 -3 -1 0 -0 -1 -1 -2 1 2 2 2 2 3 2 1 0 2 4 2 1 0 0 -0 -1 -0 0 0
-4 -4 -4 -1 0 -0 -1 2 -5 -0 -0 -1 -0 1 3 2 3 3 2 1 2 -0 -2 2 3 1 2 2 0 2 -1 1 4 -0 1 2 3 2 0 -1 0 -1 -1
-3 -2 -1 -3 -3 -2 -0 -1 4 0 -2 -2 -0 -0 -1 -0 2 -1 1 3 2 2 1 2 2 3 1 -0 3 2 1 2 -3 1 2 3 3 2 1 4 4 0 -0
-0 -2 -3 -1 -2 -2 -3 -3 -1 -0 6 9 -2 -3 -1 -0 -1 -1 1 1 1 2 -0 -1 -1 -1 -0 -0 1 -0 0 1 1 1 -1 -1 0 3 -3 0 2 3 1
-2 1 -1 -1 -1 -3 -2 0 -1 -1 -2 -1 4 10 2 -1 1 1 -1 -2 -2 -0 -1 2 -1 -3 -3 0 3 3 2 3 3 1 3 1 2 1 2 0 3 1 2
2 0 -2 -1 1 -1 1 -0 1 0 -0 -0 -0 2 -0 -3 3 3 2 -3 -6 -4 -5 -5 -1 1 3 -1 -2 1 -0 1 -0 -2 2 0 3 4 2 3 3 4 4
0 1 1 -0 0 -0 -2 -1 2 3 5 3 0 4 2 -7 2 1 1 2 -0 1 0 -0 -0 -1 -2 -1 1 -1 -3 0 2 2 1 2 1 3 4 1 -0 3 2
0 -0 -0 -2 1 2 1 0 -0 1 1 -5 -2 2 2 -2 -3 -1 1 0 -1 -0 -1 -4 1 2 1 -1 1 -0 -1 1 2 1 1 2 2 3 2 -1 2 4 4
1 -0 -2 0 0 0 -0 -1 -2 -0 -1 -1 -1 -1 3 1 1 -2 -2 -2 -1 -1 1 -1 -2 1 0 1 -1 -1 1 2 1 1 1 1 2 2 1 2 3 3 3
-3 -1 -3 -6 -9 -7 -1 0 1 0 -3 -1 1 -0 -1 -1 -0 -0 -0 0 -0 -0 -0 -2 -1 1 1 0 -0 0 1 -0 -2 -0 -1 0 2 1 3 3 5 5 5
-0 -1 -1 2 0 0 -4 -4 -3 -2 -2 -2 -2 -2 -2 -1 -4 -0 -2 -3 -1 -1 2 -0 -2 -2 -0 1 -1 -1 1 -1 -1 0 1 1 2 1 2 2 3 3 4
-3 -2 -1 -1 -1 1 -1 -1 0 0 0 0 -2 -2 -4 -4 -3 -4 -1 -1 -2 -0 -0 -0 -0 -1 -1 0 -1 -1 -1 0 -0 1 1 1 3 1 1 2 4 3 3
Height
3091 3090 3088 3087 3086 3084 3083 3083 3083 3083 3081 3080 3080 3079 3077 3075 3072 3070 3069 3067 3065 3063 3061 3059 3056 3053 3050 3046 3043 3040 3037 3034 3032 3029 3028 3026 3025 3024 3024 3025 3025 3025 3025
3086 3084 3084 3083 3081 3080 3080 3079 3078 3077 3077 3076 3076 3075 3073 3071 3068 3066 3065 3063 3061 3060 3058 3056 3053 3051 3048 3044 3041 3038 3035 3033 3031 3029 3027 3025 3023 3022 3021 3021 3021 3021 3022
3081 3080 3079 3078 3077 3076 3075 3074 3074 3073 3072 3072 3071 3070 3068 3066 3064 3062 3061 3059 3057 3055 3054 3052 3049 3047 3044 3041 3039 3036 3033 3030 3028 3026 3025 3023 3021 3020 3019 3018 3017 3017 3017
3076 3075 3074 3072 3071 3070 3069 3068 3067 3067 3067 3066 3066 3064 3063 3061 3059 3057 3056 3054 3052 3051 3049 3047 3045 3042 3040 3037 3035 3033 3030 3027 3025 3022 3021 3019 3018 3016 3014 3013 3012 3011 3011
3071 3070 3068 3066 3065 3064 3063 3062 3061 3061 3061 3061 3060 3058 3057 3055 3053 3052 3050 3049 3047 3045 3043 3041 3039 3036 3034 3032 3030 3028 3026 3023 3020 3018 3017 3015 3013 3011 3010 3009 3007 3006 3005
3064 3062 3061 3059 3057 3057 3056 3055 3055 3055 3054 3053 3053 3052 3050 3048 3047 3046 3044 3042 3041 3040 3037 3035 3032 3030 3028 3026 3024 3021 3019 3018 3015 3013 3011 3010 3008 3006 3005 3003 3002 3001 3000
3057 3055 3053 3052 3050 3049 3049 3048 3048 3048 3046 3046 3046 3044 3043 3042 3039 3038 3037 3035 3034 3032 3031 3029 3026 3023 3022 3020 3018 3015 3013 3011 3009 3007 3006 3004 3002 3001 2999 2998 2996 2995 2993
3049 3047 3045 3044 3043 3042 3041 3041 3040 3039 3038 3038 3038 3036 3035 3034 3031 3030 3028 3027 3026 3025 3022 3020 3019 3016 3013 3012 3010 3008 3006 3004 3002 3001 2999 2997 2996 2994 2993 2991 2990 2988 2987
3042 3040 3038 3036 3035 3034 3033 3032 3031 3031 3030 3029 3029 3028 3026 3026 3023 3021 3018 3017 3017 3016 3013 3011 3009 3008 3004 3003 3002 3000 2998 2996 2994 2993 2991 2990 2988 2986 2985 2983 2982 2980 2979
3035 3033 3030 3028 3026 3024 3024 3024 3023 3022 3021 3020 3020 3019 3017 3017 3014 3011 3008 3007 3007 3006 3004 3002 2999 2997 2995 2993 2992 2991 2990 2987 2986 2984 2983 2981 2979 2978 2977 2975 2973 2972 2970
3027 3025 3022 3020 3018 3016 3015 3014 3012 3011 3010 3010 3009 3008 3007 3005 3004 3001 2998 2996 2995 2994 2993 2992 2988 2986 2985 2983 2982 2981 2980 2978 2977 2976 2974 2973 2971 2969 2967 2967 2965 2964 2962
3019 3017 3014 3012 3009 3007 3005 3004 3002 3001 3000 2999 2996 2996 2996 2994 2991 2990 2987 2984 2983 2982 2983 2981 2978 2975 2975 2973 2972 2972 2970 2969 2968 2967 2966 2964 2963 2961 2960 2959 2957 2956 2954
3013 3009 3006 3003 3000 2997 2996 2994 2993 2990 2988 2988 2986 2985 2985 2982 2979 2975 2974 2972 2971 2969 2971 2969 2967 2964 2964 2964 2962 2961 2960 2959 2958 2957 2956 2955 2953 2952 2951 2949 2948 2946 2945
3005 3001 2997 2995 2992 2989 2986 2983 2982 2980 2978 2977 2975 2973 2972 2971 2966 2962 2962 2960 2959 2957 2957 2957 2956 2955 2954 2954 2952 2951 2950 2949 2948 2947 2946 2945 2943 2942 2941 2939 2938 2937 2936
2998 2993 2989 2985 2983 2981 2977 2974 2971 2969 2966 2965 2963 2962 2960 2960 2956 2953 2952 2950 2949 2947 2947 2947 2946 2945 2944 2943 2942 2941 2939 2938 2938 2937 2936 2935 2933 2932 2931 2929 2928 2926 2925
2992 2987 2982 2978 2974 2971 2969 2967 2961 2960 2958 2956 2954 2952 2950 2949 2948 2945 2943 2942 2940 2938 2939 2939 2937 2936 2935 2933 2932 2931 2929 2928 2927 2925 2925 2923 2923 2921 2920 2920 2918 2916 2915
2982 2979 2976 2970 2967 2963 2960 2957 2958 2952 2949 2948 2946 2944 2943 2942 2940 2938 2936 2935 2933 2932 2931 2931 2930 2928 2926 2924 2923 2921 2920 2919 2916 2915 2914 2914 2913 2912 2910 2910 2908 2907 2906
2975 2970 2967 2963 2959 2956 2953 2950 2948 2947 2945 2942 2938 2937 2935 2935 2933 2932 2930 2928 2928 2925 2923 2922 2921 2919 2918 2916 2913 2911 2909 2907 2906 2904 2903 2902 2902 2900 2898 2898 2897 2897 2896
2967 2963 2959 2955 2952 2948 2945 2943 2940 2939 2937 2937 2935 2932 2928 2927 2926 2924 2922 2920 2918 2916 2914 2911 2909 2907 2904 2903 2900 2897 2896 2894 2893 2891 2891 2890 2889 2888 2888 2887 2887 2886 2886
2957 2953 2949 2946 2943 2940 2938 2935 2933 2930 2928 2927 2926 2924 2920 2917 2917 2914 2911 2908 2907 2905 2902 2900 2896 2894 2891 2888 2886 2884 2882 2881 2879 2878 2877 2876 2875 2874 2874 2875 2876 2875 2876
2945 2942 2939 2935 2933 2930 2927 2925 2923 2920 2918 2916 2916 2914 2910 2907 2906 2904 2901 2898 2896 2893 2890 2888 2885 2882 2879 2876 2873 2871 2869 2867 2866 2864 2863 2863 2863 2863 2863 2863 2865 2865 2865
2931 2929 2926 2923 2920 2918 2916 2914 2911 2909 2906 2905 2904 2903 2900 2898 2895 2893 2890 2887 2885 2882 2879 2876 2873 2870 2867 2864 2861 2858 2856 2854 2853 2852 2851 2850 2850 2851 2851 2852 2854 2855 2855
2918 2914 2911 2909 2907 2904 2902 2901 2899 2896 2895 2894 2892 2890 2889 2886 2884 2881 2879 2876 2873 2870 2867 2864 2861 2858 2855 2852 2850 2847 2845 2843 2841 2840 2839 2839 2838 2838 2839 2841 2843 2844 2845
2907 2903 2899 2896 2893 2890 2887 2885 2883 2883 2882 2880 2879 2877 2876 2874 2872 2869 2866 2863 2860 2857 2854 2851 2848 2845 2843 2840 2838 2836 2834 2832 2830 2829 2828 2828 2828 2828 2829 2831 2833 2834 2836
2897 2892 2888 2883 2880 2876 2873 2870 2869 2868 2867 2866 2866 2864 2863 2861 2859 2857 2854 2851 2847 2844 2841 2838 2835 2833 2831 2829 2827 2824 2822 2821 2819 2819 2818 2818 2818 2819 2820 2822 2824 2825 2826
2887 2882 2877 2871 2867 2863 2859 2856 2854 2853 2852 2851 2851 2851 2850 2848 2847 2845 2841 2838 2835 2832 2829 2826 2824 2821 2819 2818 2816 2814 2813 2812 2811 2810 2810 2810 2810 2811 2813 2814 2815 2817 2818